星链-3623 (STARLINK-3623 )

导读

STARLINK-3623是美国太空探索技术公司(SpaceX)于2022年2月25日发射的星链卫星,隶属于星链低轨互联网星座项目。作为全球规模最大的卫星互联网组网计划,它主要为偏远地区等基础设施匮乏区域提供高速低延迟的宽带服务,助力实现全球覆盖的互联网接入目标。

基本信息
目录编号:
51772
目录名称:
STARLINK-3623
国际标识:
2022-017E
轨道中心:
EARTH
卫星名称:
星链-3623
卫星全名:
星链-3623 (STARLINK-3623 )
卫星状态:
在轨 (已飞行1573 天)
发射日期:
2022-02-25 UTC
国别 :
美国 (US)
星等 :
--
轨道信息
数据来源 国际轨道数据 AOE轨道数据
星历时间 2026-06-17T19:49:10+0800
5小时前
查看轨道信息
2026-06-15T06:00:00+0800
2天前
查看轨道信息
半长轴 6917.911km 6917.827km
偏心率 0.0001057 0.0001299
轨道倾角 53.160° 53.158°
近地点辐角 76.992° 85.509°
升交点赤经 250.988° 262.572°
平近点角 283.119° 315.721°
近地点 539.042km 538.791km
远地点 540.506km 540.589km
周期 95.438分钟 95.436分钟
每日圈数 15.088303 15.088577
详细信息
固有亮度:
5
最大亮度:
2.5
卫星平台:
Starlink v1.5
覆盖范围:
全球
运营商:
太空探索技术公司
运营商所在国:
美国
制造商(研发单位):
太空探索技术公司
制造商所在国:
美国
使用方式:
暂无
卫星简介
星链(Starlink)计划是由太空探索技术公司(SpaceX)提出的一个巨型低轨卫星互联网星座项目,计划在2019年至2024年间在太空搭建由约1.2万颗卫星组成的“星链”网络,其中1584颗将部署在地球上空550千米处的近地轨道,并从2020年开始工作。该卫星仍在工作。
2D轨道图
3D轨道图
轨道高度分析图
轨道倾角分析图
轨道综合分析图
查看轨道综合分析图